Flag for Central African Republic Weather past 2 weeks in Bimbo, Central African Republic

Now
81 °F

Clear.


Feels Like: 82 °F
Forecast: 62 / 89 °F
Wind: No wind

Location: Bangui Airport

Current Time: Dec 26, 2014 at 7:06:23 PM

Latest Report: Dec 26, 2014 at 6:00 PM


Visibility: 5 mi

Pressure: 29.80 "Hg

Humidity: 58%

Dew point: 64 °F

Location of BimboLocation

Historic Weather in Bimbo — Graph

°F

Bimbo temperature yesterday

Maximum temperature yesterday: 90 °F (at 2:00 PM)
Minimum temperature yesterday: 59 °F (at 6:00 AM)
Average temperature yesterday: 73 °F

Past Weeks' High & Low Weather Summary

 TemperatureHumidityPressure
High91 °F (Dec 12, 3:00 PM)100% (Dec 11, 11:00 PM)29.98 "Hg (Dec 11, 11:00 PM)
Low59 °F (Dec 25, 6:00 AM)26% (Dec 24, 2:00 PM)29.74 "Hg (Dec 12, 4:00 PM)
Average77 °F76%29.88 "Hg
* Reported Dec 11 6:00 PM — Dec 26 6:00 PM, Bimbo, Weather by CustomWeather, © 2014

Note: Actual official high and low records may vary slightly from our data, if they occured in-between our weather recording intervals... More about our weather records

Advertising

Bimbo weather history for previous 24 hours

 ConditionsComfort  
Time TempWeatherWind HumidityBarometerVisibility
6:00 PM
Dec 26
81 °FClear.No wind58%29.80 "Hg5 mi
5:00 PM86 °FClear.2 mph43%29.80 "Hg5 mi
4:00 PM90 °FPassing clouds.6 mph33%29.77 "HgN/A
3:00 PM90 °FSunny.3 mph31%29.80 "Hg10 mi
2:00 PM90 °FSunny.2 mph29%29.83 "Hg10 mi
1:00 PM88 °FPassing clouds.5 mph31%29.86 "HgN/A
12:00 PM86 °FPassing clouds.8 mph31%29.89 "HgN/A
11:00 AM84 °FSunny.9 mph35%29.92 "Hg10 mi
10:00 AM81 °FPassing clouds.5 mph45%29.95 "HgN/A
9:00 AM73 °FClear.2 mph69%29.95 "Hg5 mi
8:00 AM66 °FScattered clouds.2 mph88%29.98 "Hg4 mi
7:00 AM63 °FFog.2 mph94%29.95 "Hg2 mi
6:00 AM61 °FClear.No wind94%29.95 "Hg4 mi
4:00 AM61 °FClear.3 mph100%29.92 "Hg10 mi
3:00 AM63 °FClear.2 mph94%29.89 "Hg10 mi
2:00 AM63 °FClear.2 mph100%29.92 "Hg10 mi
1:00 AM64 °FClear.1 mph94%29.92 "Hg10 mi
12:00 AM64 °FClear.1 mph94%29.95 "Hg4 mi
11:00 PM
Dec 25
66 °FClear.3 mph88%29.95 "Hg4 mi
9:00 PM70 °FClear.3 mph83%29.92 "Hg1 mi
8:00 PM72 °FClear.No wind78%29.89 "Hg1 mi
7:00 PM73 °FClear.2 mph74%29.86 "Hg1 mi
Weather by CustomWeather, © 2014

See weather overviewHow to use our weather pages